Index of /20260504/WXO-DD/model_caps/3km/12/023
Name Last modified Size Description
Parent Directory -
20260504T12Z_MSC_CAPS_AbsoluteVorticity_IsbL-0250_RLatLon0.03_PT023H.grib2 2026-05-04 18:16 889K
20260504T12Z_MSC_CAPS_AbsoluteVorticity_IsbL-0500_RLatLon0.03_PT023H.grib2 2026-05-04 18:16 1.1M
20260504T12Z_MSC_CAPS_AbsoluteVorticity_IsbL-0700_RLatLon0.03_PT023H.grib2 2026-05-04 18:16 1.1M
20260504T12Z_MSC_CAPS_AbsoluteVorticity_IsbL-0850_RLatLon0.03_PT023H.grib2 2026-05-04 18:16 1.3M
20260504T12Z_MSC_CAPS_AbsoluteVorticity_IsbL-1000_RLatLon0.03_PT023H.grib2 2026-05-04 18:16 1.4M
20260504T12Z_MSC_CAPS_AirDensity_AGL-120m_RLatLon0.03_PT023H.grib2 2026-05-04 18:16 1.4M
20260504T12Z_MSC_CAPS_AirDensity_AGL-40m_RLatLon0.03_PT023H.grib2 2026-05-04 18:16 1.4M
20260504T12Z_MSC_CAPS_AirDensity_AGL-80m_RLatLon0.03_PT023H.grib2 2026-05-04 18:16 1.4M
20260504T12Z_MSC_CAPS_AirTemp_AGL-120m_RLatLon0.03_PT023H.grib2 2026-05-04 18:16 1.4M
20260504T12Z_MSC_CAPS_AirTemp_AGL-2m_RLatLon0.03_PT023H.grib2 2026-05-04 18:16 1.7M
20260504T12Z_MSC_CAPS_AirTemp_AGL-40m_RLatLon0.03_PT023H.grib2 2026-05-04 18:16 1.5M
20260504T12Z_MSC_CAPS_AirTemp_AGL-80m_RLatLon0.03_PT023H.grib2 2026-05-04 18:16 1.5M
20260504T12Z_MSC_CAPS_AirTemp_IsbL-0050_RLatLon0.03_PT023H.grib2 2026-05-04 18:16 693K
20260504T12Z_MSC_CAPS_AirTemp_IsbL-0100_RLatLon0.03_PT023H.grib2 2026-05-04 18:16 956K
20260504T12Z_MSC_CAPS_AirTemp_IsbL-0150_RLatLon0.03_PT023H.grib2 2026-05-04 18:16 746K
20260504T12Z_MSC_CAPS_AirTemp_IsbL-0175_RLatLon0.03_PT023H.grib2 2026-05-04 18:16 770K
20260504T12Z_MSC_CAPS_AirTemp_IsbL-0200_RLatLon0.03_PT023H.grib2 2026-05-04 18:16 792K
20260504T12Z_MSC_CAPS_AirTemp_IsbL-0225_RLatLon0.03_PT023H.grib2 2026-05-04 18:16 789K
20260504T12Z_MSC_CAPS_AirTemp_IsbL-0250_RLatLon0.03_PT023H.grib2 2026-05-04 18:16 1.0M
20260504T12Z_MSC_CAPS_AirTemp_IsbL-0275_RLatLon0.03_PT023H.grib2 2026-05-04 18:16 1.0M
20260504T12Z_MSC_CAPS_AirTemp_IsbL-0300_RLatLon0.03_PT023H.grib2 2026-05-04 18:16 1.0M
20260504T12Z_MSC_CAPS_AirTemp_IsbL-0350_RLatLon0.03_PT023H.grib2 2026-05-04 18:16 749K
20260504T12Z_MSC_CAPS_AirTemp_IsbL-0400_RLatLon0.03_PT023H.grib2 2026-05-04 18:16 759K
20260504T12Z_MSC_CAPS_AirTemp_IsbL-0450_RLatLon0.03_PT023H.grib2 2026-05-04 18:16 774K
20260504T12Z_MSC_CAPS_AirTemp_IsbL-0500_RLatLon0.03_PT023H.grib2 2026-05-04 18:16 791K
20260504T12Z_MSC_CAPS_AirTemp_IsbL-0550_RLatLon0.03_PT023H.grib2 2026-05-04 18:16 802K
20260504T12Z_MSC_CAPS_AirTemp_IsbL-0600_RLatLon0.03_PT023H.grib2 2026-05-04 18:16 971K
20260504T12Z_MSC_CAPS_AirTemp_IsbL-0650_RLatLon0.03_PT023H.grib2 2026-05-04 18:16 846K
20260504T12Z_MSC_CAPS_AirTemp_IsbL-0700_RLatLon0.03_PT023H.grib2 2026-05-04 18:16 1.0M
20260504T12Z_MSC_CAPS_AirTemp_IsbL-0750_RLatLon0.03_PT023H.grib2 2026-05-04 18:16 1.0M
20260504T12Z_MSC_CAPS_AirTemp_IsbL-0800_RLatLon0.03_PT023H.grib2 2026-05-04 18:16 1.1M
20260504T12Z_MSC_CAPS_AirTemp_IsbL-0850_RLatLon0.03_PT023H.grib2 2026-05-04 18:16 1.1M
20260504T12Z_MSC_CAPS_AirTemp_IsbL-0875_RLatLon0.03_PT023H.grib2 2026-05-04 18:16 1.0M
20260504T12Z_MSC_CAPS_AirTemp_IsbL-0900_RLatLon0.03_PT023H.grib2 2026-05-04 18:16 1.0M
20260504T12Z_MSC_CAPS_AirTemp_IsbL-0925_RLatLon0.03_PT023H.grib2 2026-05-04 18:16 1.1M
20260504T12Z_MSC_CAPS_AirTemp_IsbL-0950_RLatLon0.03_PT023H.grib2 2026-05-04 18:16 1.1M
20260504T12Z_MSC_CAPS_AirTemp_IsbL-0970_RLatLon0.03_PT023H.grib2 2026-05-04 18:16 1.1M
20260504T12Z_MSC_CAPS_AirTemp_IsbL-0985_RLatLon0.03_PT023H.grib2 2026-05-04 18:16 1.1M
20260504T12Z_MSC_CAPS_AirTemp_IsbL-1000_RLatLon0.03_PT023H.grib2 2026-05-04 18:16 1.1M
20260504T12Z_MSC_CAPS_AirTemp_IsbL-1015_RLatLon0.03_PT023H.grib2 2026-05-04 18:16 1.1M
20260504T12Z_MSC_CAPS_Albedo_Sfc_RLatLon0.03_PT023H.grib2 2026-05-04 18:16 2.7M
20260504T12Z_MSC_CAPS_CAPE_Sfc_RLatLon0.03_PT023H.grib2 2026-05-04 18:16 221K
20260504T12Z_MSC_CAPS_CloudWater_EAtm_RLatLon0.03_PT023H.grib2 2026-05-04 18:16 1.5M
20260504T12Z_MSC_CAPS_ConvectivePrecip-Accum_Sfc_RLatLon0.03_PT023H.grib2 2026-05-04 18:16 3.9M
20260504T12Z_MSC_CAPS_DewPointDepression_AGL-120m_RLatLon0.03_PT023H.grib2 2026-05-04 18:16 2.1M
20260504T12Z_MSC_CAPS_DewPointDepression_AGL-2m_RLatLon0.03_PT023H.grib2 2026-05-04 18:16 2.1M
20260504T12Z_MSC_CAPS_DewPointDepression_AGL-40m_RLatLon0.03_PT023H.grib2 2026-05-04 18:16 2.1M
20260504T12Z_MSC_CAPS_DewPointDepression_AGL-80m_RLatLon0.03_PT023H.grib2 2026-05-04 18:16 2.1M
20260504T12Z_MSC_CAPS_DewPointDepression_IsbL-0050_RLatLon0.03_PT023H.grib2 2026-05-04 18:16 7.5K
20260504T12Z_MSC_CAPS_DewPointDepression_IsbL-0100_RLatLon0.03_PT023H.grib2 2026-05-04 18:16 63K
20260504T12Z_MSC_CAPS_DewPointDepression_IsbL-0150_RLatLon0.03_PT023H.grib2 2026-05-04 18:16 67K
20260504T12Z_MSC_CAPS_DewPointDepression_IsbL-0175_RLatLon0.03_PT023H.grib2 2026-05-04 18:16 201K
20260504T12Z_MSC_CAPS_DewPointDepression_IsbL-0200_RLatLon0.03_PT023H.grib2 2026-05-04 18:16 376K
20260504T12Z_MSC_CAPS_DewPointDepression_IsbL-0225_RLatLon0.03_PT023H.grib2 2026-05-04 18:16 620K
20260504T12Z_MSC_CAPS_DewPointDepression_IsbL-0250_RLatLon0.03_PT023H.grib2 2026-05-04 18:16 857K
20260504T12Z_MSC_CAPS_DewPointDepression_IsbL-0275_RLatLon0.03_PT023H.grib2 2026-05-04 18:16 1.0M
20260504T12Z_MSC_CAPS_DewPointDepression_IsbL-0300_RLatLon0.03_PT023H.grib2 2026-05-04 18:16 1.0M
20260504T12Z_MSC_CAPS_DewPointDepression_IsbL-0350_RLatLon0.03_PT023H.grib2 2026-05-04 18:16 1.1M
20260504T12Z_MSC_CAPS_DewPointDepression_IsbL-0400_RLatLon0.03_PT023H.grib2 2026-05-04 18:16 1.1M
20260504T12Z_MSC_CAPS_DewPointDepression_IsbL-0450_RLatLon0.03_PT023H.grib2 2026-05-04 18:16 1.2M
20260504T12Z_MSC_CAPS_DewPointDepression_IsbL-0500_RLatLon0.03_PT023H.grib2 2026-05-04 18:16 1.2M
20260504T12Z_MSC_CAPS_DewPointDepression_IsbL-0550_RLatLon0.03_PT023H.grib2 2026-05-04 18:16 1.2M
20260504T12Z_MSC_CAPS_DewPointDepression_IsbL-0600_RLatLon0.03_PT023H.grib2 2026-05-04 18:16 1.3M
20260504T12Z_MSC_CAPS_DewPointDepression_IsbL-0650_RLatLon0.03_PT023H.grib2 2026-05-04 18:16 1.3M
20260504T12Z_MSC_CAPS_DewPointDepression_IsbL-0700_RLatLon0.03_PT023H.grib2 2026-05-04 18:16 1.3M
20260504T12Z_MSC_CAPS_DewPointDepression_IsbL-0750_RLatLon0.03_PT023H.grib2 2026-05-04 18:16 1.3M
20260504T12Z_MSC_CAPS_DewPointDepression_IsbL-0800_RLatLon0.03_PT023H.grib2 2026-05-04 18:16 1.3M
20260504T12Z_MSC_CAPS_DewPointDepression_IsbL-0850_RLatLon0.03_PT023H.grib2 2026-05-04 18:16 1.3M
20260504T12Z_MSC_CAPS_DewPointDepression_IsbL-0875_RLatLon0.03_PT023H.grib2 2026-05-04 18:16 1.3M
20260504T12Z_MSC_CAPS_DewPointDepression_IsbL-0900_RLatLon0.03_PT023H.grib2 2026-05-04 18:16 1.3M
20260504T12Z_MSC_CAPS_DewPointDepression_IsbL-0925_RLatLon0.03_PT023H.grib2 2026-05-04 18:16 1.4M
20260504T12Z_MSC_CAPS_DewPointDepression_IsbL-0950_RLatLon0.03_PT023H.grib2 2026-05-04 18:16 1.4M
20260504T12Z_MSC_CAPS_DewPointDepression_IsbL-0970_RLatLon0.03_PT023H.grib2 2026-05-04 18:16 1.4M
20260504T12Z_MSC_CAPS_DewPointDepression_IsbL-0985_RLatLon0.03_PT023H.grib2 2026-05-04 18:16 1.4M
20260504T12Z_MSC_CAPS_DewPointDepression_IsbL-1000_RLatLon0.03_PT023H.grib2 2026-05-04 18:16 1.4M
20260504T12Z_MSC_CAPS_DewPointDepression_IsbL-1015_RLatLon0.03_PT023H.grib2 2026-05-04 18:16 1.3M
20260504T12Z_MSC_CAPS_DewPoint_AGL-120m_RLatLon0.03_PT023H.grib2 2026-05-04 18:16 3.6M
20260504T12Z_MSC_CAPS_DewPoint_AGL-2m_RLatLon0.03_PT023H.grib2 2026-05-04 18:16 1.8M
20260504T12Z_MSC_CAPS_DewPoint_AGL-40m_RLatLon0.03_PT023H.grib2 2026-05-04 18:16 3.7M
20260504T12Z_MSC_CAPS_DewPoint_AGL-80m_RLatLon0.03_PT023H.grib2 2026-05-04 18:16 3.7M
20260504T12Z_MSC_CAPS_DownwardLongwaveRadiationFlux-Accum_Sfc_RLatLon0.03_PT023H.grib2 2026-05-04 18:16 2.2M
20260504T12Z_MSC_CAPS_DownwardShortwaveRadiationFlux-Accum_NTAtm_RLatLon0.03_PT023H.grib2 2026-05-04 18:16 474K
20260504T12Z_MSC_CAPS_DownwardShortwaveRadiationFlux-Accum_Sfc_RLatLon0.03_PT023H.grib2 2026-05-04 18:16 3.1M
20260504T12Z_MSC_CAPS_FreezingRain-Accum_Sfc_RLatLon0.03_PT023H.grib2 2026-05-04 18:16 562K
20260504T12Z_MSC_CAPS_GeopotentialHeight_IsbL-0050_RLatLon0.03_PT023H.grib2 2026-05-04 18:16 630K
20260504T12Z_MSC_CAPS_GeopotentialHeight_IsbL-0100_RLatLon0.03_PT023H.grib2 2026-05-04 18:16 829K
20260504T12Z_MSC_CAPS_GeopotentialHeight_IsbL-0150_RLatLon0.03_PT023H.grib2 2026-05-04 18:16 611K
20260504T12Z_MSC_CAPS_GeopotentialHeight_IsbL-0175_RLatLon0.03_PT023H.grib2 2026-05-04 18:16 727K
20260504T12Z_MSC_CAPS_GeopotentialHeight_IsbL-0200_RLatLon0.03_PT023H.grib2 2026-05-04 18:16 744K
20260504T12Z_MSC_CAPS_GeopotentialHeight_IsbL-0225_RLatLon0.03_PT023H.grib2 2026-05-04 18:16 760K
20260504T12Z_MSC_CAPS_GeopotentialHeight_IsbL-0250_RLatLon0.03_PT023H.grib2 2026-05-04 18:16 769K
20260504T12Z_MSC_CAPS_GeopotentialHeight_IsbL-0275_RLatLon0.03_PT023H.grib2 2026-05-04 18:16 774K
20260504T12Z_MSC_CAPS_GeopotentialHeight_IsbL-0300_RLatLon0.03_PT023H.grib2 2026-05-04 18:16 779K
20260504T12Z_MSC_CAPS_GeopotentialHeight_IsbL-0350_RLatLon0.03_PT023H.grib2 2026-05-04 18:16 783K
20260504T12Z_MSC_CAPS_GeopotentialHeight_IsbL-0400_RLatLon0.03_PT023H.grib2 2026-05-04 18:16 779K
20260504T12Z_MSC_CAPS_GeopotentialHeight_IsbL-0450_RLatLon0.03_PT023H.grib2 2026-05-04 18:16 773K
20260504T12Z_MSC_CAPS_GeopotentialHeight_IsbL-0500_RLatLon0.03_PT023H.grib2 2026-05-04 18:16 767K
20260504T12Z_MSC_CAPS_GeopotentialHeight_IsbL-0550_RLatLon0.03_PT023H.grib2 2026-05-04 18:16 647K
20260504T12Z_MSC_CAPS_GeopotentialHeight_IsbL-0600_RLatLon0.03_PT023H.grib2 2026-05-04 18:16 814K
20260504T12Z_MSC_CAPS_GeopotentialHeight_IsbL-0650_RLatLon0.03_PT023H.grib2 2026-05-04 18:16 811K
20260504T12Z_MSC_CAPS_GeopotentialHeight_IsbL-0700_RLatLon0.03_PT023H.grib2 2026-05-04 18:16 811K
20260504T12Z_MSC_CAPS_GeopotentialHeight_IsbL-0750_RLatLon0.03_PT023H.grib2 2026-05-04 18:16 892K
20260504T12Z_MSC_CAPS_GeopotentialHeight_IsbL-0800_RLatLon0.03_PT023H.grib2 2026-05-04 18:16 826K
20260504T12Z_MSC_CAPS_GeopotentialHeight_IsbL-0850_RLatLon0.03_PT023H.grib2 2026-05-04 18:16 834K
20260504T12Z_MSC_CAPS_GeopotentialHeight_IsbL-0875_RLatLon0.03_PT023H.grib2 2026-05-04 18:16 825K
20260504T12Z_MSC_CAPS_GeopotentialHeight_IsbL-0900_RLatLon0.03_PT023H.grib2 2026-05-04 18:16 849K
20260504T12Z_MSC_CAPS_GeopotentialHeight_IsbL-0925_RLatLon0.03_PT023H.grib2 2026-05-04 18:16 858K
20260504T12Z_MSC_CAPS_GeopotentialHeight_IsbL-0950_RLatLon0.03_PT023H.grib2 2026-05-04 18:16 678K
20260504T12Z_MSC_CAPS_GeopotentialHeight_IsbL-0970_RLatLon0.03_PT023H.grib2 2026-05-04 18:16 685K
20260504T12Z_MSC_CAPS_GeopotentialHeight_IsbL-0985_RLatLon0.03_PT023H.grib2 2026-05-04 18:16 692K
20260504T12Z_MSC_CAPS_GeopotentialHeight_IsbL-1000_RLatLon0.03_PT023H.grib2 2026-05-04 18:16 698K
20260504T12Z_MSC_CAPS_GeopotentialHeight_IsbL-1015_RLatLon0.03_PT023H.grib2 2026-05-04 18:16 705K
20260504T12Z_MSC_CAPS_GeopotentialHeight_Sfc_RLatLon0.03_PT023H.grib2 2026-05-04 18:16 1.0M
20260504T12Z_MSC_CAPS_IcePellets-Accum_Sfc_RLatLon0.03_PT023H.grib2 2026-05-04 18:16 71K
20260504T12Z_MSC_CAPS_LatentHeatNetFlux_Sfc_RLatLon0.03_PT023H.grib2 2026-05-04 18:16 1.8M
20260504T12Z_MSC_CAPS_LiftedIndex-MU-VT_IsbL-0500_RLatLon0.03_PT023H.grib2 2026-05-04 18:16 3.4M
20260504T12Z_MSC_CAPS_MixedLayerThickness_Sfc_RLatLon0.03_PT023H.nc 2026-05-04 18:14 16M
20260504T12Z_MSC_CAPS_NetLongwaveRadiationFlux-Accum_Sfc_RLatLon0.03_PT023H.grib2 2026-05-04 18:16 3.0M
20260504T12Z_MSC_CAPS_NetShortwaveRadiationFlux-Accum_Sfc_RLatLon0.03_PT023H.grib2 2026-05-04 18:16 3.1M
20260504T12Z_MSC_CAPS_PlanetaryBoundaryLayerHeight_Sfc_RLatLon0.03_PT023H.grib2 2026-05-04 18:16 2.4M
20260504T12Z_MSC_CAPS_Precip-Accum_Sfc_RLatLon0.03_PT023H.grib2 2026-05-04 18:16 4.6M
20260504T12Z_MSC_CAPS_PrecipRate_Sfc_RLatLon0.03_PT023H.grib2 2026-05-04 18:16 683K
20260504T12Z_MSC_CAPS_PrecipType-Instant_Sfc_RLatLon0.03_PT023H.grib2 2026-05-04 18:16 2.0M
20260504T12Z_MSC_CAPS_Pressure_MSL_RLatLon0.03_PT023H.grib2 2026-05-04 18:16 931K
20260504T12Z_MSC_CAPS_Pressure_Sfc_RLatLon0.03_PT023H.grib2 2026-05-04 18:16 1.2M
20260504T12Z_MSC_CAPS_RadiativeTemp_Sfc_RLatLon0.03_PT023H.grib2 2026-05-04 18:16 2.1M
20260504T12Z_MSC_CAPS_Rain-Accum_Sfc_RLatLon0.03_PT023H.grib2 2026-05-04 18:16 2.2M
20260504T12Z_MSC_CAPS_RelativeHumidity_AGL-120m_RLatLon0.03_PT023H.grib2 2026-05-04 18:16 2.8M
20260504T12Z_MSC_CAPS_RelativeHumidity_AGL-2m_RLatLon0.03_PT023H.grib2 2026-05-04 18:16 2.9M
20260504T12Z_MSC_CAPS_RelativeHumidity_AGL-40m_RLatLon0.03_PT023H.grib2 2026-05-04 18:16 2.9M
20260504T12Z_MSC_CAPS_RelativeHumidity_AGL-80m_RLatLon0.03_PT023H.grib2 2026-05-04 18:16 2.8M
20260504T12Z_MSC_CAPS_RelativeHumidity_IsbL-0050_RLatLon0.03_PT023H.grib2 2026-05-04 18:16 1.0M
20260504T12Z_MSC_CAPS_RelativeHumidity_IsbL-0100_RLatLon0.03_PT023H.grib2 2026-05-04 18:16 870K
20260504T12Z_MSC_CAPS_RelativeHumidity_IsbL-0150_RLatLon0.03_PT023H.grib2 2026-05-04 18:16 605K
20260504T12Z_MSC_CAPS_RelativeHumidity_IsbL-0175_RLatLon0.03_PT023H.grib2 2026-05-04 18:16 482K
20260504T12Z_MSC_CAPS_RelativeHumidity_IsbL-0200_RLatLon0.03_PT023H.grib2 2026-05-04 18:16 662K
20260504T12Z_MSC_CAPS_RelativeHumidity_IsbL-0225_RLatLon0.03_PT023H.grib2 2026-05-04 18:16 876K
20260504T12Z_MSC_CAPS_RelativeHumidity_IsbL-0250_RLatLon0.03_PT023H.grib2 2026-05-04 18:16 1.1M
20260504T12Z_MSC_CAPS_RelativeHumidity_IsbL-0275_RLatLon0.03_PT023H.grib2 2026-05-04 18:16 1.4M
20260504T12Z_MSC_CAPS_RelativeHumidity_IsbL-0300_RLatLon0.03_PT023H.grib2 2026-05-04 18:16 1.7M
20260504T12Z_MSC_CAPS_RelativeHumidity_IsbL-0350_RLatLon0.03_PT023H.grib2 2026-05-04 18:16 1.9M
20260504T12Z_MSC_CAPS_RelativeHumidity_IsbL-0400_RLatLon0.03_PT023H.grib2 2026-05-04 18:16 2.1M
20260504T12Z_MSC_CAPS_RelativeHumidity_IsbL-0450_RLatLon0.03_PT023H.grib2 2026-05-04 18:16 2.0M
20260504T12Z_MSC_CAPS_RelativeHumidity_IsbL-0500_RLatLon0.03_PT023H.grib2 2026-05-04 18:16 2.1M
20260504T12Z_MSC_CAPS_RelativeHumidity_IsbL-0550_RLatLon0.03_PT023H.grib2 2026-05-04 18:16 2.1M
20260504T12Z_MSC_CAPS_RelativeHumidity_IsbL-0600_RLatLon0.03_PT023H.grib2 2026-05-04 18:16 2.1M
20260504T12Z_MSC_CAPS_RelativeHumidity_IsbL-0650_RLatLon0.03_PT023H.grib2 2026-05-04 18:16 2.3M
20260504T12Z_MSC_CAPS_RelativeHumidity_IsbL-0700_RLatLon0.03_PT023H.grib2 2026-05-04 18:16 2.3M
20260504T12Z_MSC_CAPS_RelativeHumidity_IsbL-0750_RLatLon0.03_PT023H.grib2 2026-05-04 18:16 2.4M
20260504T12Z_MSC_CAPS_RelativeHumidity_IsbL-0800_RLatLon0.03_PT023H.grib2 2026-05-04 18:16 2.4M
20260504T12Z_MSC_CAPS_RelativeHumidity_IsbL-0850_RLatLon0.03_PT023H.grib2 2026-05-04 18:16 2.6M
20260504T12Z_MSC_CAPS_RelativeHumidity_IsbL-0875_RLatLon0.03_PT023H.grib2 2026-05-04 18:16 2.6M
20260504T12Z_MSC_CAPS_RelativeHumidity_IsbL-0900_RLatLon0.03_PT023H.grib2 2026-05-04 18:16 2.6M
20260504T12Z_MSC_CAPS_RelativeHumidity_IsbL-0925_RLatLon0.03_PT023H.grib2 2026-05-04 18:16 2.7M
20260504T12Z_MSC_CAPS_RelativeHumidity_IsbL-0950_RLatLon0.03_PT023H.grib2 2026-05-04 18:16 2.7M
20260504T12Z_MSC_CAPS_RelativeHumidity_IsbL-0970_RLatLon0.03_PT023H.grib2 2026-05-04 18:16 2.8M
20260504T12Z_MSC_CAPS_RelativeHumidity_IsbL-0985_RLatLon0.03_PT023H.grib2 2026-05-04 18:16 2.9M
20260504T12Z_MSC_CAPS_RelativeHumidity_IsbL-1000_RLatLon0.03_PT023H.grib2 2026-05-04 18:16 2.9M
20260504T12Z_MSC_CAPS_RelativeHumidity_IsbL-1015_RLatLon0.03_PT023H.grib2 2026-05-04 18:16 3.0M
20260504T12Z_MSC_CAPS_Runoff-Accum_Sfc_RLatLon0.03_PT023H.grib2 2026-05-04 18:16 272K
20260504T12Z_MSC_CAPS_SeaIceAreaFraction_Sfc_RLatLon0.03_PT023H.nc 2026-05-04 18:14 15M
20260504T12Z_MSC_CAPS_SeaIceCompressiveStrength_Sfc_RLatLon0.03_PT023H.nc 2026-05-04 18:14 15M
20260504T12Z_MSC_CAPS_SeaIceDivergence_Sfc_RLatLon0.03_PT023H.nc 2026-05-04 18:14 15M
20260504T12Z_MSC_CAPS_SeaIceInternalPressure_Sfc_RLatLon0.03_PT023H.nc 2026-05-04 18:14 15M
20260504T12Z_MSC_CAPS_SeaIceShear_Sfc_RLatLon0.03_PT023H.nc 2026-05-04 18:14 14M
20260504T12Z_MSC_CAPS_SeaIceSnowTemp_Sfc_RLatLon0.03_PT023H.nc 2026-05-04 18:14 14M
20260504T12Z_MSC_CAPS_SeaIceSnowVolume_Sfc_RLatLon0.03_PT023H.nc 2026-05-04 18:14 15M
20260504T12Z_MSC_CAPS_SeaIceVelocityX_Sfc_RLatLon0.03_PT023H.nc 2026-05-04 18:14 15M
20260504T12Z_MSC_CAPS_SeaIceVelocityY_Sfc_RLatLon0.03_PT023H.nc 2026-05-04 18:14 15M
20260504T12Z_MSC_CAPS_SeaIceVolume_Sfc_RLatLon0.03_PT023H.nc 2026-05-04 18:14 15M
20260504T12Z_MSC_CAPS_SeaSurfaceHeight_Sfc_RLatLon0.03_PT023H.nc 2026-05-04 18:14 16M
20260504T12Z_MSC_CAPS_SeaWaterSalinity_DBS-0.5m_RLatLon0.03_PT023H.nc 2026-05-04 18:14 16M
20260504T12Z_MSC_CAPS_SeaWaterSalinity_DBS-all_RLatLon0.03_PT023H.nc 2026-05-04 18:14 107M
20260504T12Z_MSC_CAPS_SeaWaterTemp_DBS-0.5m_RLatLon0.03_PT023H.nc 2026-05-04 18:14 14M
20260504T12Z_MSC_CAPS_SeaWaterTemp_DBS-all_RLatLon0.03_PT023H.nc 2026-05-04 18:14 88M
20260504T12Z_MSC_CAPS_SeaWaterVelocityX_DBS-0.5m_RLatLon0.03_PT023H.nc 2026-05-04 18:14 17M
20260504T12Z_MSC_CAPS_SeaWaterVelocityX_DBS-all_RLatLon0.03_PT023H.nc 2026-05-04 18:14 211M
20260504T12Z_MSC_CAPS_SeaWaterVelocityY_DBS-0.5m_RLatLon0.03_PT023H.nc 2026-05-04 18:14 18M
20260504T12Z_MSC_CAPS_SeaWaterVelocityY_DBS-all_RLatLon0.03_PT023H.nc 2026-05-04 18:14 215M
20260504T12Z_MSC_CAPS_SensibleHeatNetFlux_Sfc_RLatLon0.03_PT023H.grib2 2026-05-04 18:16 2.0M
20260504T12Z_MSC_CAPS_ShowalterIndex_IsbL-0500_RLatLon0.03_PT023H.grib2 2026-05-04 18:16 3.8M
20260504T12Z_MSC_CAPS_Snow-Accum_Sfc_RLatLon0.03_PT023H.grib2 2026-05-04 18:16 3.5M
20260504T12Z_MSC_CAPS_SnowDensity_Sfc_RLatLon0.03_PT023H.grib2 2026-05-04 18:16 1.3M
20260504T12Z_MSC_CAPS_SnowDepthWaterEquivalent_Sfc_RLatLon0.03_PT023H.grib2 2026-05-04 18:16 659K
20260504T12Z_MSC_CAPS_SnowDepth_Sfc_RLatLon0.03_PT023H.grib2 2026-05-04 18:16 1.1M
20260504T12Z_MSC_CAPS_SoilTemp_DBS-0to10cm_RLatLon0.03_PT023H.grib2 2026-05-04 18:16 1.6M
20260504T12Z_MSC_CAPS_SoilTemp_Sfc_RLatLon0.03_PT023H.grib2 2026-05-04 18:16 1.8M
20260504T12Z_MSC_CAPS_SoilVolumetricIceContent_Sfc_RLatLon0.03_PT023H.grib2 2026-05-04 18:16 1.4M
20260504T12Z_MSC_CAPS_SoilVolumetricWaterContent_DBS-0to10cm_RLatLon0.03_PT023H.grib2 2026-05-04 18:16 1.3M
20260504T12Z_MSC_CAPS_SoilVolumetricWaterContent_DBS-0to1cm_RLatLon0.03_PT023H.grib2 2026-05-04 18:16 1.7M
20260504T12Z_MSC_CAPS_SpecificHumidity_AGL-120m_RLatLon0.03_PT023H.grib2 2026-05-04 18:16 1.4M
20260504T12Z_MSC_CAPS_SpecificHumidity_AGL-2m_RLatLon0.03_PT023H.grib2 2026-05-04 18:16 1.7M
20260504T12Z_MSC_CAPS_SpecificHumidity_AGL-40m_RLatLon0.03_PT023H.grib2 2026-05-04 18:16 1.5M
20260504T12Z_MSC_CAPS_SpecificHumidity_AGL-80m_RLatLon0.03_PT023H.grib2 2026-05-04 18:16 1.4M
20260504T12Z_MSC_CAPS_SpecificHumidity_IsbL-0050_RLatLon0.03_PT023H.grib2 2026-05-04 18:16 913K
20260504T12Z_MSC_CAPS_SpecificHumidity_IsbL-0100_RLatLon0.03_PT023H.grib2 2026-05-04 18:16 1.0M
20260504T12Z_MSC_CAPS_SpecificHumidity_IsbL-0150_RLatLon0.03_PT023H.grib2 2026-05-04 18:16 1.0M
20260504T12Z_MSC_CAPS_SpecificHumidity_IsbL-0175_RLatLon0.03_PT023H.grib2 2026-05-04 18:16 1.0M
20260504T12Z_MSC_CAPS_SpecificHumidity_IsbL-0200_RLatLon0.03_PT023H.grib2 2026-05-04 18:16 895K
20260504T12Z_MSC_CAPS_SpecificHumidity_IsbL-0225_RLatLon0.03_PT023H.grib2 2026-05-04 18:16 1.1M
20260504T12Z_MSC_CAPS_SpecificHumidity_IsbL-0250_RLatLon0.03_PT023H.grib2 2026-05-04 18:16 1.1M
20260504T12Z_MSC_CAPS_SpecificHumidity_IsbL-0275_RLatLon0.03_PT023H.grib2 2026-05-04 18:16 1.1M
20260504T12Z_MSC_CAPS_SpecificHumidity_IsbL-0300_RLatLon0.03_PT023H.grib2 2026-05-04 18:16 1.1M
20260504T12Z_MSC_CAPS_SpecificHumidity_IsbL-0350_RLatLon0.03_PT023H.grib2 2026-05-04 18:16 1.0M
20260504T12Z_MSC_CAPS_SpecificHumidity_IsbL-0400_RLatLon0.03_PT023H.grib2 2026-05-04 18:16 1.3M
20260504T12Z_MSC_CAPS_SpecificHumidity_IsbL-0450_RLatLon0.03_PT023H.grib2 2026-05-04 18:16 1.1M
20260504T12Z_MSC_CAPS_SpecificHumidity_IsbL-0500_RLatLon0.03_PT023H.grib2 2026-05-04 18:16 1.1M
20260504T12Z_MSC_CAPS_SpecificHumidity_IsbL-0550_RLatLon0.03_PT023H.grib2 2026-05-04 18:16 1.3M
20260504T12Z_MSC_CAPS_SpecificHumidity_IsbL-0600_RLatLon0.03_PT023H.grib2 2026-05-04 18:16 1.4M
20260504T12Z_MSC_CAPS_SpecificHumidity_IsbL-0650_RLatLon0.03_PT023H.grib2 2026-05-04 18:16 1.5M
20260504T12Z_MSC_CAPS_SpecificHumidity_IsbL-0700_RLatLon0.03_PT023H.grib2 2026-05-04 18:16 1.3M
20260504T12Z_MSC_CAPS_SpecificHumidity_IsbL-0750_RLatLon0.03_PT023H.grib2 2026-05-04 18:16 1.4M
20260504T12Z_MSC_CAPS_SpecificHumidity_IsbL-0800_RLatLon0.03_PT023H.grib2 2026-05-04 18:16 1.5M
20260504T12Z_MSC_CAPS_SpecificHumidity_IsbL-0850_RLatLon0.03_PT023H.grib2 2026-05-04 18:16 1.7M
20260504T12Z_MSC_CAPS_SpecificHumidity_IsbL-0875_RLatLon0.03_PT023H.grib2 2026-05-04 18:16 1.8M
20260504T12Z_MSC_CAPS_SpecificHumidity_IsbL-0900_RLatLon0.03_PT023H.grib2 2026-05-04 18:16 1.9M
20260504T12Z_MSC_CAPS_SpecificHumidity_IsbL-0925_RLatLon0.03_PT023H.grib2 2026-05-04 18:16 1.5M
20260504T12Z_MSC_CAPS_SpecificHumidity_IsbL-0950_RLatLon0.03_PT023H.grib2 2026-05-04 18:16 1.6M
20260504T12Z_MSC_CAPS_SpecificHumidity_IsbL-0970_RLatLon0.03_PT023H.grib2 2026-05-04 18:16 2.0M
20260504T12Z_MSC_CAPS_SpecificHumidity_IsbL-0985_RLatLon0.03_PT023H.grib2 2026-05-04 18:16 1.7M
20260504T12Z_MSC_CAPS_SpecificHumidity_IsbL-1000_RLatLon0.03_PT023H.grib2 2026-05-04 18:16 1.7M
20260504T12Z_MSC_CAPS_SpecificHumidity_IsbL-1015_RLatLon0.03_PT023H.grib2 2026-05-04 18:16 1.7M
20260504T12Z_MSC_CAPS_SpecificHumidity_Sfc_RLatLon0.03_PT023H.grib2 2026-05-04 18:16 2.0M
20260504T12Z_MSC_CAPS_StormRelativeHelicity_Sfc_RLatLon0.03_PT023H.grib2 2026-05-04 18:16 2.8M
20260504T12Z_MSC_CAPS_Thickness_IsbL-1000to0500_RLatLon0.03_PT023H.grib2 2026-05-04 18:16 473K
20260504T12Z_MSC_CAPS_TotalCloudCover_Sfc_RLatLon0.03_PT023H.grib2 2026-05-04 18:16 3.5M
20260504T12Z_MSC_CAPS_TurboclineDepth_Sfc_RLatLon0.03_PT023H.nc 2026-05-04 18:14 16M
20260504T12Z_MSC_CAPS_UpwardLongwaveRadiationFlux_NTAtm_RLatLon0.03_PT023H.grib2 2026-05-04 18:16 2.9M
20260504T12Z_MSC_CAPS_UpwardShortwaveRadiationFlux_NTAtm_RLatLon0.03_PT023H.grib2 2026-05-04 18:16 2.1M
20260504T12Z_MSC_CAPS_VerticalVelocity_IsbL-0250_RLatLon0.03_PT023H.grib2 2026-05-04 18:16 1.0M
20260504T12Z_MSC_CAPS_VerticalVelocity_IsbL-0500_RLatLon0.03_PT023H.grib2 2026-05-04 18:16 887K
20260504T12Z_MSC_CAPS_VerticalVelocity_IsbL-0700_RLatLon0.03_PT023H.grib2 2026-05-04 18:16 969K
20260504T12Z_MSC_CAPS_VerticalVelocity_IsbL-0850_RLatLon0.03_PT023H.grib2 2026-05-04 18:16 1.1M
20260504T12Z_MSC_CAPS_VerticalVelocity_IsbL-1000_RLatLon0.03_PT023H.grib2 2026-05-04 18:16 1.1M
20260504T12Z_MSC_CAPS_WindDir_AGL-10m_RLatLon0.03_PT023H.grib2 2026-05-04 18:16 2.4M
20260504T12Z_MSC_CAPS_WindDir_AGL-120m_RLatLon0.03_PT023H.grib2 2026-05-04 18:16 1.2M
20260504T12Z_MSC_CAPS_WindDir_AGL-40m_RLatLon0.03_PT023H.grib2 2026-05-04 18:16 1.4M
20260504T12Z_MSC_CAPS_WindDir_AGL-80m_RLatLon0.03_PT023H.grib2 2026-05-04 18:16 1.3M
20260504T12Z_MSC_CAPS_WindDir_IsbL-0050_RLatLon0.03_PT023H.grib2 2026-05-04 18:16 1.1M
20260504T12Z_MSC_CAPS_WindDir_IsbL-0100_RLatLon0.03_PT023H.grib2 2026-05-04 18:16 1.1M
20260504T12Z_MSC_CAPS_WindDir_IsbL-0150_RLatLon0.03_PT023H.grib2 2026-05-04 18:16 1.0M
20260504T12Z_MSC_CAPS_WindDir_IsbL-0175_RLatLon0.03_PT023H.grib2 2026-05-04 18:16 1.1M
20260504T12Z_MSC_CAPS_WindDir_IsbL-0200_RLatLon0.03_PT023H.grib2 2026-05-04 18:16 1.1M
20260504T12Z_MSC_CAPS_WindDir_IsbL-0225_RLatLon0.03_PT023H.grib2 2026-05-04 18:16 1.1M
20260504T12Z_MSC_CAPS_WindDir_IsbL-0250_RLatLon0.03_PT023H.grib2 2026-05-04 18:16 1.1M
20260504T12Z_MSC_CAPS_WindDir_IsbL-0275_RLatLon0.03_PT023H.grib2 2026-05-04 18:16 1.1M
20260504T12Z_MSC_CAPS_WindDir_IsbL-0300_RLatLon0.03_PT023H.grib2 2026-05-04 18:16 1.1M
20260504T12Z_MSC_CAPS_WindDir_IsbL-0350_RLatLon0.03_PT023H.grib2 2026-05-04 18:16 1.1M
20260504T12Z_MSC_CAPS_WindDir_IsbL-0400_RLatLon0.03_PT023H.grib2 2026-05-04 18:16 1.1M
20260504T12Z_MSC_CAPS_WindDir_IsbL-0450_RLatLon0.03_PT023H.grib2 2026-05-04 18:16 1.2M
20260504T12Z_MSC_CAPS_WindDir_IsbL-0500_RLatLon0.03_PT023H.grib2 2026-05-04 18:16 1.3M
20260504T12Z_MSC_CAPS_WindDir_IsbL-0550_RLatLon0.03_PT023H.grib2 2026-05-04 18:16 1.3M
20260504T12Z_MSC_CAPS_WindDir_IsbL-0600_RLatLon0.03_PT023H.grib2 2026-05-04 18:16 1.3M
20260504T12Z_MSC_CAPS_WindDir_IsbL-0650_RLatLon0.03_PT023H.grib2 2026-05-04 18:16 1.4M
20260504T12Z_MSC_CAPS_WindDir_IsbL-0700_RLatLon0.03_PT023H.grib2 2026-05-04 18:16 1.5M
20260504T12Z_MSC_CAPS_WindDir_IsbL-0750_RLatLon0.03_PT023H.grib2 2026-05-04 18:16 1.6M
20260504T12Z_MSC_CAPS_WindDir_IsbL-0800_RLatLon0.03_PT023H.grib2 2026-05-04 18:16 1.7M
20260504T12Z_MSC_CAPS_WindDir_IsbL-0850_RLatLon0.03_PT023H.grib2 2026-05-04 18:16 1.8M
20260504T12Z_MSC_CAPS_WindDir_IsbL-0875_RLatLon0.03_PT023H.grib2 2026-05-04 18:16 1.8M
20260504T12Z_MSC_CAPS_WindDir_IsbL-0900_RLatLon0.03_PT023H.grib2 2026-05-04 18:16 1.9M
20260504T12Z_MSC_CAPS_WindDir_IsbL-0925_RLatLon0.03_PT023H.grib2 2026-05-04 18:16 2.0M
20260504T12Z_MSC_CAPS_WindDir_IsbL-0950_RLatLon0.03_PT023H.grib2 2026-05-04 18:16 2.0M
20260504T12Z_MSC_CAPS_WindDir_IsbL-0970_RLatLon0.03_PT023H.grib2 2026-05-04 18:16 2.1M
20260504T12Z_MSC_CAPS_WindDir_IsbL-0985_RLatLon0.03_PT023H.grib2 2026-05-04 18:16 2.2M
20260504T12Z_MSC_CAPS_WindDir_IsbL-1000_RLatLon0.03_PT023H.grib2 2026-05-04 18:16 2.3M
20260504T12Z_MSC_CAPS_WindDir_IsbL-1015_RLatLon0.03_PT023H.grib2 2026-05-04 18:16 2.4M
20260504T12Z_MSC_CAPS_WindGust-Max_AGL-10m_RLatLon0.03_PT023H.grib2 2026-05-04 18:16 2.4M
20260504T12Z_MSC_CAPS_WindGust-Min_AGL-10m_RLatLon0.03_PT023H.grib2 2026-05-04 18:16 2.4M
20260504T12Z_MSC_CAPS_WindGust_AGL-10m_RLatLon0.03_PT023H.grib2 2026-05-04 18:16 2.6M
20260504T12Z_MSC_CAPS_WindSpeed_AGL-10m_RLatLon0.03_PT023H.grib2 2026-05-04 18:16 2.2M
20260504T12Z_MSC_CAPS_WindSpeed_AGL-120m_RLatLon0.03_PT023H.grib2 2026-05-04 18:16 1.2M
20260504T12Z_MSC_CAPS_WindSpeed_AGL-40m_RLatLon0.03_PT023H.grib2 2026-05-04 18:16 1.2M
20260504T12Z_MSC_CAPS_WindSpeed_AGL-80m_RLatLon0.03_PT023H.grib2 2026-05-04 18:16 1.2M
20260504T12Z_MSC_CAPS_WindSpeed_IsbL-0050_RLatLon0.03_PT023H.grib2 2026-05-04 18:16 1.3M
20260504T12Z_MSC_CAPS_WindSpeed_IsbL-0100_RLatLon0.03_PT023H.grib2 2026-05-04 18:16 1.0M
20260504T12Z_MSC_CAPS_WindSpeed_IsbL-0150_RLatLon0.03_PT023H.grib2 2026-05-04 18:16 1.0M
20260504T12Z_MSC_CAPS_WindSpeed_IsbL-0175_RLatLon0.03_PT023H.grib2 2026-05-04 18:16 1.1M
20260504T12Z_MSC_CAPS_WindSpeed_IsbL-0200_RLatLon0.03_PT023H.grib2 2026-05-04 18:16 1.2M
20260504T12Z_MSC_CAPS_WindSpeed_IsbL-0225_RLatLon0.03_PT023H.grib2 2026-05-04 18:16 956K
20260504T12Z_MSC_CAPS_WindSpeed_IsbL-0250_RLatLon0.03_PT023H.grib2 2026-05-04 18:16 969K
20260504T12Z_MSC_CAPS_WindSpeed_IsbL-0275_RLatLon0.03_PT023H.grib2 2026-05-04 18:16 1.0M
20260504T12Z_MSC_CAPS_WindSpeed_IsbL-0300_RLatLon0.03_PT023H.grib2 2026-05-04 18:16 1.0M
20260504T12Z_MSC_CAPS_WindSpeed_IsbL-0350_RLatLon0.03_PT023H.grib2 2026-05-04 18:16 1.0M
20260504T12Z_MSC_CAPS_WindSpeed_IsbL-0400_RLatLon0.03_PT023H.grib2 2026-05-04 18:16 1.0M
20260504T12Z_MSC_CAPS_WindSpeed_IsbL-0450_RLatLon0.03_PT023H.grib2 2026-05-04 18:16 1.0M
20260504T12Z_MSC_CAPS_WindSpeed_IsbL-0500_RLatLon0.03_PT023H.grib2 2026-05-04 18:16 1.4M
20260504T12Z_MSC_CAPS_WindSpeed_IsbL-0550_RLatLon0.03_PT023H.grib2 2026-05-04 18:16 1.4M
20260504T12Z_MSC_CAPS_WindSpeed_IsbL-0600_RLatLon0.03_PT023H.grib2 2026-05-04 18:16 1.4M
20260504T12Z_MSC_CAPS_WindSpeed_IsbL-0650_RLatLon0.03_PT023H.grib2 2026-05-04 18:16 1.4M
20260504T12Z_MSC_CAPS_WindSpeed_IsbL-0700_RLatLon0.03_PT023H.grib2 2026-05-04 18:16 1.5M
20260504T12Z_MSC_CAPS_WindSpeed_IsbL-0750_RLatLon0.03_PT023H.grib2 2026-05-04 18:16 1.6M
20260504T12Z_MSC_CAPS_WindSpeed_IsbL-0800_RLatLon0.03_PT023H.grib2 2026-05-04 18:16 1.6M
20260504T12Z_MSC_CAPS_WindSpeed_IsbL-0850_RLatLon0.03_PT023H.grib2 2026-05-04 18:16 1.8M
20260504T12Z_MSC_CAPS_WindSpeed_IsbL-0875_RLatLon0.03_PT023H.grib2 2026-05-04 18:16 1.8M
20260504T12Z_MSC_CAPS_WindSpeed_IsbL-0900_RLatLon0.03_PT023H.grib2 2026-05-04 18:16 1.9M
20260504T12Z_MSC_CAPS_WindSpeed_IsbL-0925_RLatLon0.03_PT023H.grib2 2026-05-04 18:16 1.9M
20260504T12Z_MSC_CAPS_WindSpeed_IsbL-0950_RLatLon0.03_PT023H.grib2 2026-05-04 18:16 2.0M
20260504T12Z_MSC_CAPS_WindSpeed_IsbL-0970_RLatLon0.03_PT023H.grib2 2026-05-04 18:16 2.0M
20260504T12Z_MSC_CAPS_WindSpeed_IsbL-0985_RLatLon0.03_PT023H.grib2 2026-05-04 18:16 2.1M
20260504T12Z_MSC_CAPS_WindSpeed_IsbL-1000_RLatLon0.03_PT023H.grib2 2026-05-04 18:16 2.1M
20260504T12Z_MSC_CAPS_WindSpeed_IsbL-1015_RLatLon0.03_PT023H.grib2 2026-05-04 18:16 2.1M
20260504T12Z_MSC_CAPS_WindU_AGL-10m_RLatLon0.03_PT023H.grib2 2026-05-04 18:16 1.9M
20260504T12Z_MSC_CAPS_WindU_AGL-120m_RLatLon0.03_PT023H.grib2 2026-05-04 18:16 931K
20260504T12Z_MSC_CAPS_WindU_AGL-40m_RLatLon0.03_PT023H.grib2 2026-05-04 18:16 1.3M
20260504T12Z_MSC_CAPS_WindU_AGL-80m_RLatLon0.03_PT023H.grib2 2026-05-04 18:16 939K
20260504T12Z_MSC_CAPS_WindU_IsbL-0050_RLatLon0.03_PT023H.grib2 2026-05-04 18:16 945K
20260504T12Z_MSC_CAPS_WindU_IsbL-0100_RLatLon0.03_PT023H.grib2 2026-05-04 18:16 969K
20260504T12Z_MSC_CAPS_WindU_IsbL-0150_RLatLon0.03_PT023H.grib2 2026-05-04 18:16 925K
20260504T12Z_MSC_CAPS_WindU_IsbL-0175_RLatLon0.03_PT023H.grib2 2026-05-04 18:16 730K
20260504T12Z_MSC_CAPS_WindU_IsbL-0200_RLatLon0.03_PT023H.grib2 2026-05-04 18:16 881K
20260504T12Z_MSC_CAPS_WindU_IsbL-0225_RLatLon0.03_PT023H.grib2 2026-05-04 18:16 897K
20260504T12Z_MSC_CAPS_WindU_IsbL-0250_RLatLon0.03_PT023H.grib2 2026-05-04 18:16 913K
20260504T12Z_MSC_CAPS_WindU_IsbL-0275_RLatLon0.03_PT023H.grib2 2026-05-04 18:16 712K
20260504T12Z_MSC_CAPS_WindU_IsbL-0300_RLatLon0.03_PT023H.grib2 2026-05-04 18:16 719K
20260504T12Z_MSC_CAPS_WindU_IsbL-0350_RLatLon0.03_PT023H.grib2 2026-05-04 18:16 732K
20260504T12Z_MSC_CAPS_WindU_IsbL-0400_RLatLon0.03_PT023H.grib2 2026-05-04 18:16 955K
20260504T12Z_MSC_CAPS_WindU_IsbL-0450_RLatLon0.03_PT023H.grib2 2026-05-04 18:16 972K
20260504T12Z_MSC_CAPS_WindU_IsbL-0500_RLatLon0.03_PT023H.grib2 2026-05-04 18:16 1.0M
20260504T12Z_MSC_CAPS_WindU_IsbL-0550_RLatLon0.03_PT023H.grib2 2026-05-04 18:16 1.0M
20260504T12Z_MSC_CAPS_WindU_IsbL-0600_RLatLon0.03_PT023H.grib2 2026-05-04 18:16 1.0M
20260504T12Z_MSC_CAPS_WindU_IsbL-0650_RLatLon0.03_PT023H.grib2 2026-05-04 18:16 1.1M
20260504T12Z_MSC_CAPS_WindU_IsbL-0700_RLatLon0.03_PT023H.grib2 2026-05-04 18:16 1.1M
20260504T12Z_MSC_CAPS_WindU_IsbL-0750_RLatLon0.03_PT023H.grib2 2026-05-04 18:16 1.2M
20260504T12Z_MSC_CAPS_WindU_IsbL-0800_RLatLon0.03_PT023H.grib2 2026-05-04 18:16 1.2M
20260504T12Z_MSC_CAPS_WindU_IsbL-0850_RLatLon0.03_PT023H.grib2 2026-05-04 18:16 1.2M
20260504T12Z_MSC_CAPS_WindU_IsbL-0875_RLatLon0.03_PT023H.grib2 2026-05-04 18:16 1.3M
20260504T12Z_MSC_CAPS_WindU_IsbL-0900_RLatLon0.03_PT023H.grib2 2026-05-04 18:16 1.3M
20260504T12Z_MSC_CAPS_WindU_IsbL-0925_RLatLon0.03_PT023H.grib2 2026-05-04 18:16 1.3M
20260504T12Z_MSC_CAPS_WindU_IsbL-0950_RLatLon0.03_PT023H.grib2 2026-05-04 18:16 1.4M
20260504T12Z_MSC_CAPS_WindU_IsbL-0970_RLatLon0.03_PT023H.grib2 2026-05-04 18:16 1.4M
20260504T12Z_MSC_CAPS_WindU_IsbL-0985_RLatLon0.03_PT023H.grib2 2026-05-04 18:16 1.5M
20260504T12Z_MSC_CAPS_WindU_IsbL-1000_RLatLon0.03_PT023H.grib2 2026-05-04 18:16 1.9M
20260504T12Z_MSC_CAPS_WindU_IsbL-1015_RLatLon0.03_PT023H.grib2 2026-05-04 18:16 1.9M
20260504T12Z_MSC_CAPS_WindV_AGL-10m_RLatLon0.03_PT023H.grib2 2026-05-04 18:16 1.9M
20260504T12Z_MSC_CAPS_WindV_AGL-120m_RLatLon0.03_PT023H.grib2 2026-05-04 18:16 930K
20260504T12Z_MSC_CAPS_WindV_AGL-40m_RLatLon0.03_PT023H.grib2 2026-05-04 18:16 1.2M
20260504T12Z_MSC_CAPS_WindV_AGL-80m_RLatLon0.03_PT023H.grib2 2026-05-04 18:16 937K
20260504T12Z_MSC_CAPS_WindV_IsbL-0050_RLatLon0.03_PT023H.grib2 2026-05-04 18:16 772K
20260504T12Z_MSC_CAPS_WindV_IsbL-0100_RLatLon0.03_PT023H.grib2 2026-05-04 18:16 967K
20260504T12Z_MSC_CAPS_WindV_IsbL-0150_RLatLon0.03_PT023H.grib2 2026-05-04 18:16 709K
20260504T12Z_MSC_CAPS_WindV_IsbL-0175_RLatLon0.03_PT023H.grib2 2026-05-04 18:16 852K
20260504T12Z_MSC_CAPS_WindV_IsbL-0200_RLatLon0.03_PT023H.grib2 2026-05-04 18:16 871K
20260504T12Z_MSC_CAPS_WindV_IsbL-0225_RLatLon0.03_PT023H.grib2 2026-05-04 18:16 892K
20260504T12Z_MSC_CAPS_WindV_IsbL-0250_RLatLon0.03_PT023H.grib2 2026-05-04 18:16 911K
20260504T12Z_MSC_CAPS_WindV_IsbL-0275_RLatLon0.03_PT023H.grib2 2026-05-04 18:16 708K
20260504T12Z_MSC_CAPS_WindV_IsbL-0300_RLatLon0.03_PT023H.grib2 2026-05-04 18:16 716K
20260504T12Z_MSC_CAPS_WindV_IsbL-0350_RLatLon0.03_PT023H.grib2 2026-05-04 18:16 728K
20260504T12Z_MSC_CAPS_WindV_IsbL-0400_RLatLon0.03_PT023H.grib2 2026-05-04 18:16 950K
20260504T12Z_MSC_CAPS_WindV_IsbL-0450_RLatLon0.03_PT023H.grib2 2026-05-04 18:16 971K
20260504T12Z_MSC_CAPS_WindV_IsbL-0500_RLatLon0.03_PT023H.grib2 2026-05-04 18:16 1.0M
20260504T12Z_MSC_CAPS_WindV_IsbL-0550_RLatLon0.03_PT023H.grib2 2026-05-04 18:16 916K
20260504T12Z_MSC_CAPS_WindV_IsbL-0600_RLatLon0.03_PT023H.grib2 2026-05-04 18:16 942K
20260504T12Z_MSC_CAPS_WindV_IsbL-0650_RLatLon0.03_PT023H.grib2 2026-05-04 18:16 1.0M
20260504T12Z_MSC_CAPS_WindV_IsbL-0700_RLatLon0.03_PT023H.grib2 2026-05-04 18:16 1.3M
20260504T12Z_MSC_CAPS_WindV_IsbL-0750_RLatLon0.03_PT023H.grib2 2026-05-04 18:16 1.4M
20260504T12Z_MSC_CAPS_WindV_IsbL-0800_RLatLon0.03_PT023H.grib2 2026-05-04 18:16 1.2M
20260504T12Z_MSC_CAPS_WindV_IsbL-0850_RLatLon0.03_PT023H.grib2 2026-05-04 18:16 1.2M
20260504T12Z_MSC_CAPS_WindV_IsbL-0875_RLatLon0.03_PT023H.grib2 2026-05-04 18:16 1.3M
20260504T12Z_MSC_CAPS_WindV_IsbL-0900_RLatLon0.03_PT023H.grib2 2026-05-04 18:16 1.3M
20260504T12Z_MSC_CAPS_WindV_IsbL-0925_RLatLon0.03_PT023H.grib2 2026-05-04 18:16 1.3M
20260504T12Z_MSC_CAPS_WindV_IsbL-0950_RLatLon0.03_PT023H.grib2 2026-05-04 18:16 1.4M
20260504T12Z_MSC_CAPS_WindV_IsbL-0970_RLatLon0.03_PT023H.grib2 2026-05-04 18:16 1.4M
20260504T12Z_MSC_CAPS_WindV_IsbL-0985_RLatLon0.03_PT023H.grib2 2026-05-04 18:16 1.5M
20260504T12Z_MSC_CAPS_WindV_IsbL-1000_RLatLon0.03_PT023H.grib2 2026-05-04 18:16 1.9M
20260504T12Z_MSC_CAPS_WindV_IsbL-1015_RLatLon0.03_PT023H.grib2 2026-05-04 18:16 1.9M